Regional Weather Roundup
Issued by NWS Newport/Morehead, NC

Current Version | Previous Version | Text Only | Print | Product List | Glossary On
Versions: 1 2 3 4 5 6 7 8 9 10 11 12 13 14 15 16 17 18 19 20 21 22 23 24 25 26 27 28 29 30 31 32 33 34 35 36 37 38 39 40 41 42 43 44 45 46 47 48 49 50
000 ASUS42 KMHX 121913 RWRMHX WEATHER ROUNDUP FOR EASTERN NORTH CAROLINA NATIONAL WEATHER SERVICE NEWPORT/MOREHEAD CITY NC 200 PM EST FRI FEB 12 2016 NOTE: "FAIR" INDICATES FEW OR NO CLOUDS BELOW 12,000 FEET WITH NO SIGNIFICANT WEATHER AND/OR OBSTRUCTIONS TO VISIBILITY NCZ015>017-031-032-045>047-102-103-122000- NORTH COAST CITY SKY/WX TMP DP RH WIND PRES REMARKS EDENTON LGT SNOW 32 26 78 NE5 30.14F ELIZABETH CITY LGT SNOW 30 23 75 NE7 30.14F KITTY HAWK LGT SNOW 33 23 67 CALM 30.11F VSB 3/4 MANTEO LGT SNOW 32 28 85 NE6 30.14F $$ NCZ045>047-081-094-103-104-122000- CENTRAL COAST CITY SKY/WX TMP DP RH WIND PRES REMARKS FRISCO RAIN 34 32 92 NE13G23 30.07F SWANQUARTER N/A 30 N/A N/A NE16 30.03F WCI 19 $$ NCZ095-097-098-100-101-122000- SOUTHERN COAST CITY SKY/WX TMP DP RH WIND PRES REMARKS BEAUFORT RAIN 35 33 92 NE15G22 30.03F FOG CEDAR ISLAND N/A 36 N/A N/A N25G31 30.09F JACKSONVILLE CLOUDY 34 31 88 NE10G20 30.04F PINEY ISLAND HVY RAIN N/A N/A N/A NE18 30.04F WILMINGTON CLOUDY 37 32 82 N7 30.06F $$ NCZ011>013-027>030-043-044-078>080-089-090>093-098-122000- COASTAL PLAIN CITY SKY/WX TMP DP RH WIND PRES REMARKS AHOSKIE CLOUDY 30 13 49 CALM 30.14F CLINTON MIX PCPN 31 29 93 N5 30.11F ELIZABETHTOWN CLOUDY 32 28 85 N6 30.09F GOLDSBORO NOT AVBL GREENVILLE LGT SNOW 30 30 100 NE6 30.12F HAVELOCK LGT RAIN 34 32 92 NE17 30.06F FOG KENANSVILLE MIX PCPN 31 29 92 CALM 30.12R KINSTON DRIZZLE 30 28 93 NE9 30.10F NEW BERN LGT RAIN 33 29 85 NE14 30.07F RICHLANDS CLOUDY 32 27 80 CALM 30.06F ROCKY MOUNT LGT SNOW 28 22 78 NE3 30.12F VSB 1 WASHINGTON LGT SNOW 30 28 91 N7 30.10F WHITEVILLE CLOUDY 37 25 61 NE8 30.05F $$ AMZ130-135-150-152-154-156-158-170-250-252-270-ANZ085-086-088-633-658-670-122000- MARINE OBSERVATIONS STATION/POSITION TIME TEMP WIND PRES WAVE SWELL AIR SEA DIR/SP/G HT/PER HT/PER (UTC) (F) (DEG/KT/KT) (MB) (FT/S) (FT/S) CHESAPEAKE LIGHT 1900 29 120/ 5/ 7 1021.4 64 E VA BEACH 1850 33 50 150/ 2/ 8 1021.0 3/ 6 2/ 6 DUCK 1800 33 70/ 7/ 10 1021.1 2 E DUCK 1811 43 N/A 2/ 6 OREGON INLET 1800 35 40 30/ 7/ 11 1021.2 13E OREGON INLT 1900 45 N/A 3/ 6 HATTERAS CG 1800 34 45 40/ 10/ 18 1019.0 DIAMOND BUOY 1850 47 59 40/ 10/ 19 1017.7 4/ 7 3/ 7 CAPE LOOKOUT NOT AVBL BEAUFORT LAB 1800 35 44 30/ 14/ 24 1017.3 30 SE NEW RVR IN 1808 51 59 1016.1 30 SE NEW RVR IN 1825 58 N/A 5/ 5 27 SE WRIGHTSVLE NOT AVBL 5 SE WRIGHTSVLE 1808 39 51 20/ 17/ 23 1017.9 225 S CAPE HAT 1850 66 68 230/ 33/ 39 N/A 10/ 7 41 SE CHARLESTON 1850 56 68 300/ 12/ 16 1016.7 4/ 6 3/ 6 $$

USA.gov is the U.S. government's official web portal to all federal, state and local government web resources and services.